Regional Weather Roundup
Issued by NWS

Home | Current Version | Previous Version | Graphics & Text | Print | Product List | Glossary On
Versions: 1 2 3 4 5 6 7 8 9 10 11 12 13 14 15 16 17 18 19 20 21 22 23 24 25 26 27 28 29 30 31 32 33 34 35 36 37 38 39 40 41 42 43 44 45 46 47 48 49 50
000
ASUS43 KLOT 091003
RWRIL

ILLINOIS REGIONAL WEATHER ROUNDUP
NATIONAL WEATHER SERVICE CHICAGO/ROMEOVILLE IL
400 AM CST TUE FEB 09 2016

NOTE: "FAIR" INDICATES FEW OR NO CLOUDS BELOW 12,000 FEET WITH NO
SIGNIFICANT WEATHER AND/OR OBSTRUCTIONS TO VISIBILITY.

* THESE STATIONS ARE NOT UNDER NWS QUALITY CONTROL. THEY ALSO MAY NOT
  REPORT WEATHER SUCH AS PRECIPITATION OR FOG.

ILZ001-002-007-009-015-016-024-091100-
NORTHWEST ILLINOIS

CITY           SKY/WX    TMP DP  RH WIND       PRES   REMARKS
MOLINE         FLURRIES  15   9  76 NW13      29.86S WCI   1
STERLING*      PTCLDY    16   9  73 NW12      29.79S WCI   3
$$

ILZ003-004-008-010-011-017-018-091100-
NORTH CENTRAL ILLINOIS

CITY           SKY/WX    TMP DP  RH WIND       PRES   REMARKS
ROCKFORD       LGT SNOW  16  11  80 NW12      29.80R BLWGSNOWWCI   3
FREEPORT*      LGT SNOW  14   9  80 NW15      29.82R WCI  -2
DE KALB*       LGT SNOW  17  13  86 NW13      29.76S WCI   3
$$

ILZ005-006-012>014-019>023-091100-
NORTHEAST ILLINOIS

CITY           SKY/WX    TMP DP  RH WIND       PRES   REMARKS
CHICAGO-OHARE  LGT SNOW  18  13  80 NW13      29.73S WCI   5
CHICAGO-MIDWAY LGT SNOW  19  12  74 NW12      29.74R FOG     WCI   7
AURORA         LGT SNOW  19  13  77 NW15      29.76S WCI   5
LANSING*       FLURRIES  21  16  83 W6        29.73S WCI  13
WAUKEGAN       LGT SNOW  17  13  84 NW12G21   29.72R FOG     WCI   4
DUPAGE AIRPORT LGT SNOW  17  11  77 NW16G22   29.74S WCI   2
WHEELING       LGT SNOW  17  13  84 NW10      29.75R FOG     WCI   5
NORTHERLY ISL    N/A     20  15  81 W10         N/A  WCI   9
$$

LMZ740>746-091100-
SOUTHERN LAKE MICHIGAN

STATION/POSITION SKY/WX   TEMP    WIND        PRES    VSBY  WAVE
                          AIR SEA DIR/SP/G                  HT/PER
                          (F)     (DEG/KT/KT) (MB)    (MI)  (FT/S)
HARRISON CRIB              21     300/ 17/ 19   N/A
BURNHAM HARBOR             20     280/  9/ 15   N/A
CALUMET HARBOR             20     280/  5/ 15 1006.1S
BURNS HARBOR               23     310/ 16/ 19 1006.4F
MICHIGAN CITY              24     260/ 23/ 26   N/A
$$

ILZ025>027-034>036-040-047-049-050-058-095>099-091100-
WEST-CENTRAL ILLINOIS

CITY           SKY/WX    TMP DP  RH WIND       PRES   REMARKS
QUINCY         LGT SNOW  16  10  77 NW23      29.90S WCI  -2
MACOMB*        FLURRIES  17  13  86 NW17      29.89S WCI   1
$$

ILZ028>032-037-038-041>044-048-051>054-059>061-091100-
CENTRAL ILLINOIS

CITY           SKY/WX    TMP DP  RH WIND       PRES   REMARKS
BLOOMINGTON    LGT SNOW  18  14  84 NW15      29.79S FOG     WCI   4
DECATUR        CLOUDY    19  11  70 W16       29.81S WCI   4
PEORIA         LGT SNOW  16  11  80 NW14G21   29.84R WCI   2
SPRINGFIELD    LGT SNOW  18  13  80 NW14      29.85S WCI   4
TAYLORVILLE    NOT AVBL
$$

ILZ033-039-045-046-055>057-062-063-091100-
EAST-CENTRAL ILLINOIS

CITY           SKY/WX    TMP DP  RH WIND       PRES   REMARKS
CHAMPAIGN      FLURRIES  19  13  77 W16       29.78S WCI   4
MATTOON        CLOUDY    18  12  77 NW15      29.80S WCI   4
$$

ILZ079-100>102-091100-
SOUTHWEST ILLINOIS

CITY           SKY/WX    TMP DP  RH WIND       PRES   REMARKS
CAHOKIA*       LGT SNOW  21  14  74 NW17      29.91S WCI   7
SPARTA*        LGT SNOW  19  15  85 NW8       29.91S WCI   9
$$

ILZ064>066-069>071-074>076-080>082-084>086-088>090-092>094-091100-
SOUTH-CENTRAL ILLINOIS

CITY           SKY/WX    TMP DP  RH WIND       PRES   REMARKS
CARBONDALE     CLOUDY    21  12  68 NW15G24   29.90S WCI   8
MARION         LGT SNOW  23  18  80 W9        29.89S WCI  13
MT. VERNON     CLOUDY    21  10  63 W10G17    29.87S WCI  10
CENTRALIA*     CLOUDY    21  15  79 NW14      29.86R WCI   8
SALEM*         CLOUDY    22  13  68 W9G18     29.85S WCI  11
$$

ILZ067-068-072-073-078-083-087-091-091100-
SOUTHEAST ILLINOIS

CITY           SKY/WX    TMP DP  RH WIND       PRES   REMARKS
LAWRENCEVILLE  LGT SNOW  20  14  77 NW17G24   29.84S WCI   5
HARRISBURG*    FLURRIES  22  18  86 NW7       29.88F WCI  13
ROBINSON*      FLURRIES  18  14  83 W13       29.84S WCI   5
CARMI*         FLURRIES  21  15  79 W10G18    29.87S WCI  10
$$

ABBREVIATIONS USED IN REMARKS
   TC - TEMPERATURE IN CELSIUS
  WCI - WIND CHILL INDEX
   HX - HEAT INDEX
  VSB - VISIBILITY
$$




USA.gov is the U.S. government's official web portal to all federal, state and local government web resources and services.